Location: Morlupo
(42.1333°N, 12.5000°E)
Time: 16:28:32
(UTC+00:00)

NOSS 3-2 (A) - Pass Details

Date: 18 September 2020
Orbit: 795 x 1413 km, 63.4° (Epoch: 02 October)

Event Time Altitude Azimuth Distance (km) Brightness Sun altitude
Rises 20:02:08 0° 321° (NW) 4,034 7.8 -30.2°
Reaches altitude 10° 20:04:45 10° 318° (NW) 3,151 7.0 -30.6°
Maximum altitude 20:12:20 62° 241° (WSW) 1,468 4.3 -31.8°
Enters shadow 20:13:56 53° 198° (SSW) 1,604 4.4 -32.0°
